Tracking 35237 objects as of 6-Sep-2026
HD Live streaming from Space Station
objects crossing your sky now

SPACEBEE-154


SPACEBEE-154 is no longer on orbit


NORAD ID: 52417
Int'l Code: 2022-047Z
Launch date: May 2, 2022
Source: United States (US)
Launch site: Rocket Lab Launch Complex (RLLC)
Decay date: 2024-05-09
Your satellite tracking list
Your tracking list is empty




NASA's NSSDC Master Catalog

Two Line Element Set (TLE):
1 52417U 22047Z   24125.30536177  .13106295  25204-5  88227-3 0  9995
2 52417  97.3544 220.0551 0015004 274.2022  85.7562 16.39933179113400
Source of the keplerian elements: AFSPC